FW0288 Weather Reports


time (UTC)temp
C
wind
direction
speed
KPH
gust
KPH
rain 1hr
cm
rain 24hr
cm
rain mn
cm
humidity
%
barometer
mb
20260902220050 28 360 0.0 17.7 0.00 0.00 0.00 25 1001.0
20260902214528 28 360 0.0 4.8 0.00 0.00 0.00 24 1001.3
20260902213027 28 360 0.0 9.7 0.00 0.00 0.00 25 1001.6
20260902211526 28 360 0.0 6.4 0.00 0.00 0.00 27 1001.8
20260902210024 28 360 0.0 14.5 0.00 0.00 0.00 24 1002.0
20260902204525 28 110 1.6 14.5 0.00 0.00 0.00 28 1002.3
20260902203019 29 38 1.6 12.9 0.00 0.00 0.00 29 1002.6
20260902201534 28 148 0.0 8.0 0.00 0.00 0.00 27 1002.8
20260902200014 28 360 1.6 24.1 0.00 0.00 0.00 26 1003.0
20260902194526 28 86 0.0 17.7 0.00 0.00 0.00 26 1003.1
20260902193032 28 360 1.6 11.3 0.00 0.00 0.00 26 1003.4
20260902191510 27 360 1.6 6.4 0.00 0.00 0.00 30 1003.7
20260902190012 28 20 0.0 8.0 0.00 0.00 0.00 29 1003.7
20260902184511 27 360 1.6 6.4 0.00 0.00 0.00 29 1003.9
20260902183003 28 360 0.0 4.8 0.00 0.00 0.00 30 1004.2
20260902181611 28 94 0.0 4.8 0.00 0.00 0.00 27 1004.5
20260902180100 27 360 1.6 16.1 0.00 0.00 0.00 31 1004.7
20260902174553 26 360 0.0 12.9 0.00 0.00 0.00 29 1004.9
20260902173051 26 360 0.0 14.5 0.00 0.00 0.00 34 1005.0
20260902171553 26 83 1.6 9.7 0.00 0.00 0.00 34 1005.2
20260902170041 26 360 0.0 20.9 0.00 0.00 0.00 35 1005.4
20260902163040 25 114 1.6 14.5 0.00 0.00 0.00 39 1005.6
20260902161534 24 360 1.6 14.5 0.00 0.00 0.00 41 1005.5
20260902160028 23 113 1.6 8.0 0.00 0.00 0.00 42 1005.6
20260902154524 23 360 3.2 14.5 0.00 0.00 0.00 42 1005.6
20260902153040 23 101 1.6 11.3 0.00 0.00 0.00 41 1005.5
20260902151517 22 360 1.6 9.7 0.00 0.00 0.00 45 1005.4
20260902150011 22 360 1.6 9.7 0.00 0.00 0.00 45 1005.5
20260902144506 22 71 0.0 9.7 0.00 0.00 0.00 44 1005.5
20260902143001 21 71 0.0 1.6 0.00 0.00 0.00 45 1005.6
20260902141558 21 75 0.0 8.0 0.00 0.00 0.00 46 1005.7
20260902140052 20 360 0.0 3.2 0.00 0.00 0.00 54 1005.6
20260902134554 20 59 0.0 1.6 0.00 0.00 0.00 47 1005.8
20260902133044 18 250 0.0 0.0 0.00 0.00 0.00 50 1005.6
20260902131544 17 259 0.0 0.0 0.00 0.00 0.00 55 1005.5
20260902130038 17 259 0.0 0.0 0.00 0.00 0.00 54 1005.2
20260902124531 16 154 0.0 0.0 0.00 0.00 0.00 55 1005.3
20260902123033 17 86 0.0 1.6 0.00 0.00 0.00 52 1005.1
20260902121529 17 273 0.0 0.0 0.00 0.00 0.00 50 1005.0
20260902120028 18 269 0.0 4.8 0.00 0.00 0.00 48 1004.8
20260902114529 15 263 0.0 0.0 0.00 0.00 0.00 59 1004.7
20260902113034 15 263 0.0 0.0 0.00 0.00 0.00 58 1004.8
20260902111523 16 263 0.0 0.0 0.00 0.00 0.00 57 1004.8
20260902110033 16 263 0.0 0.0 0.00 0.00 0.00 55 1004.8
20260902104522 16 263 0.0 0.0 0.00 0.00 0.00 55 1004.9
20260902103119 16 263 0.0 0.0 0.00 0.00 0.00 54 1005.0
20260902101518 16 263 0.0 0.0 0.00 0.00 0.00 55 1005.0
20260902100018 16 263 0.0 0.0 0.00 0.00 0.00 55 1005.0
20260902094522 16 263 0.0 0.0 0.00 0.00 0.00 55 1005.1
20260902093029 17 263 0.0 0.0 0.00 0.00 0.00 54 1005.1
20260902091515 16 263 0.0 0.0 0.00 0.00 0.00 55 1005.1
20260902090014 17 262 0.0 0.0 0.00 0.00 0.00 54 1005.0
20260902084513 17 262 0.0 0.0 0.00 0.00 0.00 52 1004.8
20260902083009 17 262 0.0 0.0 0.00 0.00 0.00 52 1004.8
20260902081506 18 262 0.0 0.0 0.00 0.00 0.00 51 1004.9
20260902080003 18 262 0.0 0.0 0.00 0.00 0.00 48 1005.0
20260902074501 18 262 0.0 0.0 0.00 0.08 0.00 47 1005.0
20260902073102 19 262 0.0 0.0 0.00 0.08 0.00 46 1004.9
20260902071556 20 263 0.0 0.0 0.00 0.08 0.00 46 1004.9
20260902070052 20 263 0.0 0.0 0.00 0.08 0.00 44 1004.8
20260902064551 20 263 0.0 1.6 0.00 0.08 0.00 44 1004.9
20260902063050 21 261 0.0 9.7 0.00 0.08 0.00 43 1004.8
20260902061559 20 259 0.0 4.8 0.00 0.08 0.00 42 1004.9
20260902060056 20 277 0.0 4.8 0.00 0.08 0.00 43 1004.9
20260902054605 20 273 0.0 1.6 0.00 0.08 0.08 44 1005.1
20260902053059 21 263 0.0 4.8 0.00 0.08 0.08 42 1005.1
20260902051546 21 277 0.0 1.6 0.00 0.08 0.08 42 1005.0
20260902050045 21 285 0.0 3.2 0.00 0.08 0.08 44 1005.1
20260902044542 21 281 0.0 4.8 0.00 0.08 0.08 47 1005.1
20260902043045 21 271 0.0 6.4 0.00 0.08 0.08 48 1005.5
20260902041546 21 269 0.0 0.0 0.00 0.08 0.08 48 1005.6
20260902040048 22 269 0.0 0.0 0.00 0.08 0.08 47 1005.6
20260902034541 22 261 0.0 6.4 0.00 0.10 0.08 48 1005.6
20260902033041 22 274 0.0 0.0 0.00 0.10 0.08 48 1005.5
20260902031544 21 258 0.0 3.2 0.00 0.10 0.08 51 1005.5
20260902030040 21 164 0.0 0.0 0.00 0.10 0.08 62 1005.6
20260902024542 22 360 0.0 0.0 0.00 0.18 0.08 60 1005.1
20260902023044 23 103 0.0 0.0 0.00 0.18 0.08 46 1004.8
20260902021539 25 71 0.0 6.4 0.00 0.18 0.08 36 1004.9
20260902020039 26 52 1.6 14.5 0.00 0.18 0.08 30 1004.3
20260902014537 26 121 0.0 0.0 0.00 0.18 0.08 32 1004.5
20260902013041 25 89 0.0 0.0 0.00 0.18 0.08 34 1004.4
20260902011535 25 90 0.0 0.0 0.00 0.18 0.08 36 1004.4
20260902010034 26 360 0.0 6.4 0.00 0.18 0.08 32 1004.3
20260902004534 27 5 0.0 0.0 0.00 0.18 0.08 32 1004.2
20260902003038 27 5 0.0 0.0 0.00 0.18 0.08 32 1004.4
20260902001545 27 5 0.0 0.0 0.00 0.18 0.08 30 1004.3
20260902000035 27 29 0.0 0.0 0.00 0.18 0.08 28 1004.2
20260901234529 28 55 0.0 3.2 0.00 0.18 0.08 27 1004.3
20260901233028 30 263 0.0 14.5 0.00 0.18 0.08 27 1004.3
20260901231529 30 273 0.0 6.4 0.00 0.18 0.08 24 1004.2
20260901230028 29 266 0.0 4.8 0.00 0.18 0.08 25 1004.1
20260901224527 29 260 0.0 9.7 0.00 0.18 0.08 23 1004.1
20260901223026 31 177 0.0 6.4 0.00 0.18 0.08 20 1004.2
20260901221524 31 268 0.0 16.1 0.00 0.18 0.08 21 1004.5